Weather in Isayevskoye

Russia / Ivanovo Oblast     57°00′51″N   39°41′52″E
temp.,
°C
wind,
m/s
gust,
m/s
humid.,
%
clouds,
%
prec.,
mm/h
press.,
hPa
HPBL,
m
13 august, sat
sat1300:00+16w347357 0.0 102342
03:00+15nw22828 0.0 102322
06:00+15nw11826 0.0 102316
09:00+22nnw1160100 0.0 1023397
12:00+25wnw1149100 0.0 10221227
15:00+26wnw1143100 0.0 10211681
18:00+26sw1152100 0.0 102166
21:00+20wsw2263100 0.0 102113
14 august, sun
sun1400:00+18wnw2271100 0.0 102111
03:00+17sw1175100 0.0 102111
06:00+18ssw1174100 0.0 102111
09:00+23s1157100 0.0 1021331
12:00+26se224598 0.0 10211524
15:00+28e223817 0.0 10202289
18:00+26ene344673 0.0 1019277
21:00+20ene466151 0.0 102073
15 august, mon
mon1500:00+20e366299 0.0 1020140
03:00+20e3461100 0.0 102192
06:00+20e3564100 0.0 1022120
09:00+21ese2463100 0.0 1022157
12:00+24ese235599 0.0 1023392
15:00+28ne3337100 0.0 10222049
18:00+26ese364699 0.0 1022300
21:00+20ese366783 0.0 102391
16 august, tue
tue1600:00+20se3766100 0.0 1023129
03:00+20ese3865100 0.0 1024182
06:00+20se376592 0.0 1024184
09:00+24sse345291 0.0 1024414
12:00+26se244127 0.0 10241318
15:00+29se343235 0.0 10232482
18:00+27ese464086 0.0 1023410
21:00+23ese384983 0.0 1023192
17 august, wed
wed1700:00+19se49675 0.0 1024148
03:00+20se475995 0.0 1023171
06:00+20se356273 0.0 1024149
09:00+22se345675 0.0 1024301
12:00+27ese34395 0.0 10221699
15:00+28ese44336 0.0 10222309
18:00+27e34395 0.0 1021446
21:00+20e45565 0.0 102265